Regional Weather Roundup
Issued by NWS

Home | Current Version | Previous Version | Graphics & Text | Print | Product List | Glossary On
Versions: 1 2 3 4 5 6 7 8 9 10 11 12 13 14 15 16 17 18 19 20 21 22 23 24 25 26 27 28 29 30 31 32 33 34 35 36 37 38 39 40 41 42 43 44 45 46 47 48 49 50
000
ASUS43 KTOP 300859
RWRKS

WEATHER ROUNDUP FOR KANSAS
NATIONAL WEATHER SERVICE GOODLAND KS
400 AM CDT SUN AUG 30 2015

NOTE:  "FAIR" INDICATES FEW OR NO CLOUDS BELOW 12,000 FEET WITH NO
SIGNIFICANT WEATHER AND/OR OBSTRUCTIONS TO VISIBILITY.

KSZ001>006-013>018-027>032-041>047-301000-
NORTHWEST KANSAS

CITY           SKY/WX    TMP DP  RH WIND       PRES   REMARKS
GOODLAND       MOCLDY    63  48  58 S12       30.10S
HAYS           MOCLDY    55  48  76 CALM      30.05S VSB 3/4
HILL CITY      CLEAR     57  55  93 SW3       30.05F
RUSSELL        FOG       56  55  97 SW5       30.04S VSB 1/2
$$

KSZ061>065-074>080-084>089-301000-
SOUTHWEST KANSAS

CITY           SKY/WX    TMP DP  RH WIND       PRES   REMARKS
DODGE CITY     CLEAR     58  56  93 S6        30.08R FOG
ELKHART          N/A     66  48  52 S9          N/A
GARDEN CITY    CLEAR     56  52  86 W5        30.08R
GREAT BEND     CLOUDY    55  50  82 CALM      30.06S VSB 1/4
LIBERAL        CLEAR     59  50  72 W5        30.09S
$$

KSZ066>073-081>083-090>101-301000-
SOUTHEAST KANSAS

CITY           SKY/WX    TMP DP  RH WIND       PRES   REMARKS
CHANUTE        PTCLDY    65  65 100 N3        30.00S FOG
COFFEYVILLE    CLEAR     66  65  96 NW6       29.98S
HUTCHINSON     FOG       56  54  93 NW3       30.04S VSB 1/2
NEWTON         CLEAR     61  55  82 E3        30.05S
PARSONS        CLEAR     67  66  97 N3        29.99F
WICHITA INTL   CLEAR     60  58  92 CALM      30.02S
WICHITA JABRA  CLEAR     59  58  96 CALM      30.02S FOG
$$

KSZ007>012-019>026-033>040-048>060-102>105-301000-
NORTHEAST KANSAS

CITY           SKY/WX    TMP DP  RH WIND       PRES   REMARKS
CONCORDIA      FOG       56  56 100 CALM      30.04S VSB 1/4
EMPORIA        FOG       63  63 100 NE6       30.02S VSB 1/4
LAWRENCE       CLEAR     62  61  96 CALM      30.02S
MANHATTAN      PTCLDY    61  60  97 CALM      30.03S FOG
OLATHE IND     CLOUDY    66  65  96 N6        30.02S
OLATHE EXE     CLOUDY    67  66  97 NE6       30.01S
SALINA         FOG       58  56  93 NW3       30.04R VSB 1/2
TOPEKA BILLARD CLEAR     62  61  96 CALM      30.02F
TOPEKA FORBES  CLEAR     62  60  93 N3        30.02F FOG
$$


USA.gov is the U.S. government's official web portal to all federal, state and local government web resources and services.